Time,TemperatureF,DewpointF,PressureIn,WindDirection,WindDirectionDegrees,WindSpeedMPH,WindSpeedGustMPH,Humidity,HourlyPrecipIn,Conditions,Clouds,dailyrainin,SoftwareType,DateUTC
2013-05-27 00:01:00,68.7,9.9,29.67,ENE,57,0.9,0.9,10,0.00,,,0.00,meteobridge,2013-05-27 06:01:00,
2013-05-27 00:06:00,69.3,8.1,29.67,ENE,57,0.0,0.0,9,0.00,,,0.00,meteobridge,2013-05-27 06:06:00,
2013-05-27 00:11:00,69.3,8.1,29.67,South,190,0.0,2.9,9,0.00,,,0.00,meteobridge,2013-05-27 06:11:00,
2013-05-27 00:16:00,69.4,10.4,29.68,South,182,0.0,0.0,10,0.00,,,0.00,meteobridge,2013-05-27 06:16:00,
2013-05-27 00:21:00,68.4,11.8,29.68,WNW,284,0.0,0.9,11,0.00,,,0.00,meteobridge,2013-05-27 06:21:00,
2013-05-27 00:26:00,68.4,7.3,29.68,WNW,285,0.9,0.9,9,0.00,,,0.00,meteobridge,2013-05-27 06:26:00,
2013-05-27 00:31:00,69.1,7.9,29.68,South,184,2.9,2.9,9,0.00,,,0.00,meteobridge,2013-05-27 06:31:00,
2013-05-27 00:37:00,69.4,8.1,29.68,SSW,192,0.0,2.0,9,0.00,,,0.00,meteobridge,2013-05-27 06:37:00,
2013-05-27 00:42:00,69.3,5.4,29.68,SSW,205,2.0,4.9,8,0.00,,,0.00,meteobridge,2013-05-27 06:42:00,
2013-05-27 00:47:00,68.7,7.5,29.68,South,185,0.0,2.9,9,0.00,,,0.00,meteobridge,2013-05-27 06:47:00,
2013-05-27 00:52:00,68.5,7.5,29.68,SSW,192,0.0,2.9,9,0.00,,,0.00,meteobridge,2013-05-27 06:52:00,
2013-05-27 00:57:00,68.0,9.3,29.68,SSE,165,0.9,2.0,10,0.00,,,0.00,meteobridge,2013-05-27 06:57:00,
2013-05-27 01:02:00,67.3,8.8,29.69,South,177,2.9,4.9,10,0.00,,,0.00,meteobridge,2013-05-27 07:02:00,
2013-05-27 01:07:00,67.1,6.4,29.69,SSE,163,0.9,2.9,9,0.00,,,0.00,meteobridge,2013-05-27 07:07:00,
2013-05-27 01:12:00,66.6,8.2,29.69,SSE,160,0.9,4.0,10,0.00,,,0.00,meteobridge,2013-05-27 07:12:00,
2013-05-27 01:17:00,66.4,5.9,29.69,South,172,0.0,2.0,9,0.00,,,0.00,meteobridge,2013-05-27 07:17:00,
2013-05-27 01:23:00,66.4,10.2,29.69,South,190,0.0,2.9,11,0.00,,,0.00,meteobridge,2013-05-27 07:23:00,
2013-05-27 01:28:00,66.4,8.1,29.69,South,177,2.0,4.0,10,0.00,,,0.00,meteobridge,2013-05-27 07:28:00,
2013-05-27 01:33:00,66.2,8.1,29.69,SW,219,0.9,2.9,10,0.00,,,0.00,meteobridge,2013-05-27 07:33:00,
2013-05-27 01:38:00,65.8,7.7,29.69,SSW,195,0.0,0.9,10,0.00,,,0.00,meteobridge,2013-05-27 07:38:00,
2013-05-27 01:43:00,65.7,9.7,29.68,South,190,0.9,2.0,11,0.00,,,0.00,meteobridge,2013-05-27 07:43:00,
2013-05-27 01:48:00,64.9,7.0,29.68,South,186,0.9,0.9,10,0.00,,,0.00,meteobridge,2013-05-27 07:48:00,
2013-05-27 01:53:00,64.2,10.6,29.68,South,186,0.0,2.0,12,0.00,,,0.00,meteobridge,2013-05-27 07:53:00,
2013-05-27 01:58:00,63.7,11.8,29.68,SSE,148,0.0,2.0,13,0.00,,,0.00,meteobridge,2013-05-27 07:58:00,
2013-05-27 02:03:00,63.3,11.7,29.68,SE,140,0.0,2.0,13,0.00,,,0.00,meteobridge,2013-05-27 08:03:00,
2013-05-27 02:08:00,63.1,9.7,29.68,SE,140,0.0,0.9,12,0.00,,,0.00,meteobridge,2013-05-27 08:08:00,
2013-05-27 02:13:00,63.0,9.5,29.68,SE,140,0.9,0.9,12,0.00,,,0.00,meteobridge,2013-05-27 08:13:00,
2013-05-27 02:18:00,62.8,9.3,29.68,SE,140,0.0,0.0,12,0.00,,,0.00,meteobridge,2013-05-27 08:18:00,
2013-05-27 02:23:00,62.2,10.8,29.68,SE,140,0.9,0.9,13,0.00,,,0.00,meteobridge,2013-05-27 08:23:00,
2013-05-27 02:28:00,62.1,8.8,29.68,SE,140,0.0,0.9,12,0.00,,,0.00,meteobridge,2013-05-27 08:28:00,
2013-05-27 02:33:00,62.2,7.0,29.68,SE,140,0.0,0.9,11,0.00,,,0.00,meteobridge,2013-05-27 08:33:00,
2013-05-27 02:39:00,61.9,12.2,29.68,SE,140,0.0,0.9,14,0.00,,,0.00,meteobridge,2013-05-27 08:39:00,
2013-05-27 02:44:00,61.0,11.5,29.68,SE,140,0.0,0.9,14,0.00,,,0.00,meteobridge,2013-05-27 08:44:00,
2013-05-27 02:49:00,60.3,12.4,29.68,SE,140,0.0,0.0,15,0.00,,,0.00,meteobridge,2013-05-27 08:49:00,
2013-05-27 02:54:00,59.7,12.0,29.69,SE,140,0.0,0.0,15,0.00,,,0.00,meteobridge,2013-05-27 08:54:00,
2013-05-27 03:00:00,59.4,11.7,29.68,SE,125,2.0,4.0,15,0.00,,,0.00,meteobridge,2013-05-27 09:00:00,
2013-05-27 03:05:00,59.4,11.7,29.68,NNE,23,0.0,2.0,15,0.00,,,0.00,meteobridge,2013-05-27 09:05:00,
2013-05-27 03:10:00,59.4,11.7,29.68,NNE,23,0.0,0.0,15,0.00,,,0.00,meteobridge,2013-05-27 09:10:00,
2013-05-27 03:15:00,59.2,11.5,29.68,SE,143,0.0,2.9,15,0.00,,,0.00,meteobridge,2013-05-27 09:15:00,
2013-05-27 03:20:00,58.8,11.3,29.68,SE,128,0.0,0.0,15,0.00,,,0.00,meteobridge,2013-05-27 09:20:00,
2013-05-27 03:25:00,58.8,9.7,29.69,SE,128,0.9,0.9,14,0.00,,,0.00,meteobridge,2013-05-27 09:25:00,
2013-05-27 03:30:00,58.8,9.7,29.69,SE,128,0.0,0.9,14,0.00,,,0.00,meteobridge,2013-05-27 09:30:00,
2013-05-27 03:35:00,59.2,10.0,29.69,ENE,76,0.0,0.9,14,0.00,,,0.00,meteobridge,2013-05-27 09:35:00,
2013-05-27 03:41:00,59.0,9.9,29.69,ENE,76,0.0,0.0,14,0.00,,,0.00,meteobridge,2013-05-27 09:41:00,
2013-05-27 03:46:00,58.5,9.5,29.69,ENE,76,0.0,0.9,14,0.00,,,0.00,meteobridge,2013-05-27 09:46:00,
2013-05-27 03:51:00,57.7,11.8,29.69,ENE,76,0.0,0.9,16,0.00,,,0.00,meteobridge,2013-05-27 09:51:00,
2013-05-27 03:57:00,57.4,12.9,29.69,ENE,76,0.0,0.0,17,0.00,,,0.00,meteobridge,2013-05-27 09:57:00,
2013-05-27 04:02:00,56.8,12.4,29.69,East,88,0.0,2.0,17,0.00,,,0.00,meteobridge,2013-05-27 10:02:00,
2013-05-27 04:07:00,56.8,11.1,29.69,East,88,0.0,0.9,16,0.00,,,0.00,meteobridge,2013-05-27 10:07:00,
2013-05-27 04:12:00,57.4,11.5,29.69,East,88,0.0,0.0,16,0.00,,,0.00,meteobridge,2013-05-27 10:12:00,
2013-05-27 04:17:00,57.6,10.2,29.69,East,88,0.9,0.9,15,0.00,,,0.00,meteobridge,2013-05-27 10:17:00,
2013-05-27 04:22:00,57.4,12.9,29.69,ESE,115,0.0,0.9,17,0.00,,,0.00,meteobridge,2013-05-27 10:22:00,
2013-05-27 04:27:00,56.8,13.8,29.68,ESE,115,0.0,0.0,18,0.00,,,0.00,meteobridge,2013-05-27 10:27:00,
2013-05-27 04:32:00,56.8,11.1,29.68,ESE,111,0.0,0.9,16,0.00,,,0.00,meteobridge,2013-05-27 10:32:00,
2013-05-27 04:37:00,56.8,13.8,29.69,East,99,0.0,0.9,18,0.00,,,0.00,meteobridge,2013-05-27 10:37:00,
2013-05-27 04:42:00,56.1,14.4,29.69,East,99,0.0,0.9,19,0.00,,,0.00,meteobridge,2013-05-27 10:42:00,
2013-05-27 04:47:00,55.9,14.2,29.69,East,99,0.0,0.0,19,0.00,,,0.00,meteobridge,2013-05-27 10:47:00,
2013-05-27 04:52:00,56.1,13.1,29.68,East,99,0.0,0.0,18,0.00,,,0.00,meteobridge,2013-05-27 10:52:00,
2013-05-27 04:58:00,55.9,14.2,29.69,East,99,0.0,0.0,19,0.00,,,0.00,meteobridge,2013-05-27 10:58:00,
2013-05-27 05:03:00,55.9,13.1,29.68,East,99,0.0,0.9,18,0.00,,,0.00,meteobridge,2013-05-27 11:03:00,
2013-05-27 05:08:00,55.8,14.2,29.69,ENE,57,0.9,0.9,19,0.00,,,0.00,meteobridge,2013-05-27 11:08:00,
2013-05-27 05:13:00,55.9,14.2,29.69,North,11,0.0,0.0,19,0.00,,,0.00,meteobridge,2013-05-27 11:13:00,
2013-05-27 05:18:00,56.1,15.6,29.69,North,11,0.0,0.9,20,0.00,,,0.00,meteobridge,2013-05-27 11:18:00,
2013-05-27 05:23:00,56.5,14.7,29.70,North,11,0.0,0.0,19,0.00,,,0.00,meteobridge,2013-05-27 11:23:00,
2013-05-27 05:28:00,56.5,17.1,29.70,SW,214,0.9,2.0,21,0.00,,,0.00,meteobridge,2013-05-27 11:28:00,
2013-05-27 05:34:00,56.3,14.5,29.70,WNW,292,0.0,0.9,19,0.00,,,0.00,meteobridge,2013-05-27 11:34:00,
2013-05-27 05:39:00,57.4,14.2,29.70,WNW,292,0.9,0.9,18,0.00,,,0.00,meteobridge,2013-05-27 11:39:00,
2013-05-27 05:44:00,56.8,16.2,29.70,WNW,291,0.0,0.0,20,0.00,,,0.00,meteobridge,2013-05-27 11:44:00,
2013-05-27 05:49:00,56.7,16.0,29.70,NNE,22,0.0,0.0,20,0.00,,,0.00,meteobridge,2013-05-27 11:49:00,
2013-05-27 05:54:00,56.5,17.1,29.70,NNE,31,0.0,0.9,21,0.00,,,0.00,meteobridge,2013-05-27 11:54:00,
2013-05-27 05:59:00,56.7,16.0,29.69,ESE,123,0.0,0.9,20,0.00,,,0.00,meteobridge,2013-05-27 11:59:00,
2013-05-27 06:04:00,56.7,16.0,29.70,SE,130,0.9,0.9,20,0.00,,,0.00,meteobridge,2013-05-27 12:04:00,
2013-05-27 06:09:00,56.8,18.3,29.70,ESE,120,0.0,0.0,22,0.00,,,0.00,meteobridge,2013-05-27 12:09:00,
2013-05-27 06:14:00,56.8,17.2,29.70,ESE,120,0.0,0.9,21,0.00,,,0.00,meteobridge,2013-05-27 12:14:00,
2013-05-27 06:19:00,56.7,19.2,29.70,ESE,120,0.0,0.9,23,0.00,,,0.00,meteobridge,2013-05-27 12:19:00,
2013-05-27 06:24:00,56.8,17.2,29.70,ESE,120,0.0,0.9,21,0.00,,,0.00,meteobridge,2013-05-27 12:24:00,
2013-05-27 06:29:00,57.0,17.4,29.70,ESE,120,0.0,0.0,21,0.00,,,0.00,meteobridge,2013-05-27 12:29:00,
2013-05-27 06:35:00,57.2,16.5,29.70,ESE,120,0.0,0.0,20,0.00,,,0.00,meteobridge,2013-05-27 12:35:00,
2013-05-27 06:40:00,57.2,20.7,29.71,ESE,120,0.0,0.0,24,0.00,,,0.00,meteobridge,2013-05-27 12:40:00,
2013-05-27 06:45:00,57.2,20.7,29.71,ESE,120,0.0,0.0,24,0.00,,,0.00,meteobridge,2013-05-27 12:45:00,
2013-05-27 06:50:00,57.2,20.7,29.71,ESE,120,0.0,0.9,24,0.00,,,0.00,meteobridge,2013-05-27 12:50:00,
2013-05-27 06:55:00,57.6,19.9,29.71,ESE,120,0.0,0.0,23,0.00,,,0.00,meteobridge,2013-05-27 12:55:00,
2013-05-27 07:01:00,57.6,21.0,29.71,ESE,120,0.0,0.0,24,0.00,,,0.00,meteobridge,2013-05-27 13:01:00,
2013-05-27 07:06:00,57.6,23.0,29.71,ESE,120,0.0,0.0,26,0.00,,,0.00,meteobridge,2013-05-27 13:06:00,
2013-05-27 07:11:00,57.7,22.1,29.71,ESE,120,0.0,0.0,25,0.00,,,0.00,meteobridge,2013-05-27 13:11:00,
2013-05-27 07:16:00,57.9,22.3,29.71,ESE,120,0.0,0.0,25,0.00,,,0.00,meteobridge,2013-05-27 13:16:00,
2013-05-27 07:22:00,57.9,25.0,29.71,ESE,120,0.0,0.0,28,0.00,,,0.00,meteobridge,2013-05-27 13:22:00,
2013-05-27 07:27:00,57.9,25.9,29.71,ESE,120,0.0,0.0,29,0.00,,,0.00,meteobridge,2013-05-27 13:27:00,
2013-05-27 07:32:00,57.9,26.6,29.71,ESE,120,0.0,0.0,30,0.00,,,0.00,meteobridge,2013-05-27 13:32:00,
2013-05-27 07:37:00,58.5,28.8,29.71,ESE,120,0.0,0.0,32,0.00,,,0.00,meteobridge,2013-05-27 13:37:00,
2013-05-27 07:42:00,58.6,28.9,29.71,ESE,120,0.0,0.0,32,0.00,,,0.00,meteobridge,2013-05-27 13:42:00,
2013-05-27 07:47:00,59.0,30.7,29.71,ESE,120,0.0,0.0,34,0.00,,,0.00,meteobridge,2013-05-27 13:47:00,
2013-05-27 07:52:00,59.2,30.0,29.71,ESE,120,0.0,0.0,33,0.00,,,0.00,meteobridge,2013-05-27 13:52:00,
2013-05-27 07:57:00,59.5,28.0,29.71,ESE,120,0.0,0.9,30,0.00,,,0.00,meteobridge,2013-05-27 13:57:00,
2013-05-27 08:03:00,60.1,26.8,29.71,ESE,120,0.0,0.0,28,0.00,,,0.00,meteobridge,2013-05-27 14:03:00,
2013-05-27 08:08:00,60.4,30.4,29.71,ESE,120,0.0,0.0,32,0.00,,,0.00,meteobridge,2013-05-27 14:08:00,
2013-05-27 08:13:00,61.2,31.1,29.72,ESE,120,0.0,0.0,32,0.00,,,0.00,meteobridge,2013-05-27 14:13:00,
2013-05-27 08:18:00,61.7,28.2,29.72,SSE,168,0.0,0.0,28,0.00,,,0.00,meteobridge,2013-05-27 14:18:00,
2013-05-27 08:23:00,62.2,26.1,29.72,South,169,0.0,0.9,25,0.00,,,0.00,meteobridge,2013-05-27 14:23:00,
2013-05-27 08:28:00,62.4,25.2,29.72,South,169,0.0,0.0,24,0.00,,,0.00,meteobridge,2013-05-27 14:28:00,
2013-05-27 08:33:00,62.8,22.3,29.72,South,175,0.0,0.0,21,0.00,,,0.00,meteobridge,2013-05-27 14:33:00,
2013-05-27 08:38:00,62.8,25.5,29.72,South,182,0.0,0.0,24,0.00,,,0.00,meteobridge,2013-05-27 14:38:00,
2013-05-27 08:43:00,62.8,19.9,29.72,South,182,0.0,0.9,19,0.00,,,0.00,meteobridge,2013-05-27 14:43:00,
2013-05-27 08:48:00,63.0,21.2,29.72,South,182,0.0,0.0,20,0.00,,,0.00,meteobridge,2013-05-27 14:48:00,
2013-05-27 08:54:00,63.3,20.3,29.72,South,182,0.0,0.9,19,0.00,,,0.00,meteobridge,2013-05-27 14:54:00,
2013-05-27 08:59:00,63.7,18.0,29.72,South,182,0.0,0.9,17,0.00,,,0.00,meteobridge,2013-05-27 14:59:00,
2013-05-27 09:04:00,64.2,18.5,29.72,SSW,201,0.0,0.9,17,0.00,,,0.00,meteobridge,2013-05-27 15:04:00,
2013-05-27 09:09:00,64.6,15.8,29.73,SSW,201,0.0,0.0,15,0.00,,,0.00,meteobridge,2013-05-27 15:09:00,
2013-05-27 09:14:00,64.9,17.6,29.73,SSW,201,0.0,0.9,16,0.00,,,0.00,meteobridge,2013-05-27 15:14:00,
2013-05-27 09:19:00,65.3,16.5,29.73,SSW,202,0.0,0.9,15,0.00,,,0.00,meteobridge,2013-05-27 15:19:00,
2013-05-27 09:24:00,64.9,17.6,29.73,SW,221,0.0,2.9,16,0.00,,,0.00,meteobridge,2013-05-27 15:24:00,
2013-05-27 09:30:00,65.3,16.5,29.73,SW,236,0.0,0.0,15,0.00,,,0.00,meteobridge,2013-05-27 15:30:00,
2013-05-27 09:35:00,65.7,13.5,29.73,SW,220,0.9,2.9,13,0.00,,,0.00,meteobridge,2013-05-27 15:35:00,
2013-05-27 09:40:00,66.4,12.2,29.72,WSW,238,0.0,2.0,12,0.00,,,0.00,meteobridge,2013-05-27 15:40:00,
2013-05-27 09:45:00,66.9,10.8,29.72,SSW,197,0.0,2.0,11,0.00,,,0.00,meteobridge,2013-05-27 15:45:00,
2013-05-27 09:50:00,66.9,10.8,29.72,SSW,204,0.0,2.0,11,0.00,,,0.00,meteobridge,2013-05-27 15:50:00,
2013-05-27 09:55:00,67.6,9.1,29.72,SW,215,0.0,0.0,10,0.00,,,0.00,meteobridge,2013-05-27 15:55:00,
2013-05-27 10:00:00,68.4,11.8,29.72,WNW,295,0.9,2.0,11,0.00,,,0.00,meteobridge,2013-05-27 16:00:00,
2013-05-27 10:05:00,68.5,9.9,29.72,WNW,300,0.0,0.9,10,0.00,,,0.00,meteobridge,2013-05-27 16:05:00,
2013-05-27 10:10:00,68.9,12.2,29.72,WNW,299,0.0,0.9,11,0.00,,,0.00,meteobridge,2013-05-27 16:10:00,
2013-05-27 10:15:00,68.5,7.5,29.71,WNW,299,0.0,0.9,9,0.00,,,0.00,meteobridge,2013-05-27 16:15:00,
2013-05-27 10:21:00,69.1,10.2,29.71,South,173,0.0,2.0,10,0.00,,,0.00,meteobridge,2013-05-27 16:21:00,
2013-05-27 10:26:00,69.1,10.2,29.71,ESE,117,0.0,0.0,10,0.00,,,0.00,meteobridge,2013-05-27 16:26:00,
2013-05-27 10:31:00,69.6,10.6,29.70,SE,144,0.9,2.9,10,0.00,,,0.00,meteobridge,2013-05-27 16:31:00,
2013-05-27 10:36:00,69.6,8.2,29.70,SE,142,0.0,0.9,9,0.00,,,0.00,meteobridge,2013-05-27 16:36:00,
2013-05-27 10:41:00,70.3,8.8,29.70,SE,142,0.9,2.9,9,0.00,,,0.00,meteobridge,2013-05-27 16:41:00,
2013-05-27 10:46:00,70.2,8.6,29.70,SW,221,2.9,4.0,9,0.00,,,0.00,meteobridge,2013-05-27 16:46:00,
2013-05-27 10:51:00,70.5,6.3,29.70,SW,222,0.9,2.0,8,0.00,,,0.00,meteobridge,2013-05-27 16:51:00,
2013-05-27 10:56:00,70.5,6.3,29.70,SW,224,0.9,0.9,8,0.00,,,0.00,meteobridge,2013-05-27 16:56:00,
2013-05-27 11:01:00,71.2,9.5,29.70,SW,227,2.0,2.0,9,0.00,,,0.00,meteobridge,2013-05-27 17:01:00,
2013-05-27 11:06:00,71.6,7.2,29.70,SSW,194,2.0,4.0,8,0.00,,,0.00,meteobridge,2013-05-27 17:06:00,
2013-05-27 11:11:00,72.0,7.3,29.69,SE,146,0.0,2.9,8,0.00,,,0.00,meteobridge,2013-05-27 17:11:00,
2013-05-27 11:16:00,72.3,4.8,29.69,West,272,0.9,4.0,7,0.00,,,0.00,meteobridge,2013-05-27 17:16:00,
2013-05-27 11:21:00,72.9,1.8,29.69,NE,54,0.0,4.0,6,0.00,,,0.00,meteobridge,2013-05-27 17:21:00,
2013-05-27 11:27:00,73.2,5.4,29.69,SW,230,0.0,4.9,7,0.00,,,0.00,meteobridge,2013-05-27 17:27:00,
2013-05-27 11:32:00,73.2,5.4,29.69,NW,323,0.0,0.9,7,0.00,,,0.00,meteobridge,2013-05-27 17:32:00,
2013-05-27 11:37:00,72.7,5.0,29.69,NE,45,2.0,2.0,7,0.00,,,0.00,meteobridge,2013-05-27 17:37:00,
2013-05-27 11:42:00,73.9,9.0,29.69,South,180,0.9,6.0,8,0.00,,,0.00,meteobridge,2013-05-27 17:42:00,
2013-05-27 11:47:00,73.9,5.9,29.69,SSW,207,0.0,4.9,7,0.00,,,0.00,meteobridge,2013-05-27 17:47:00,
2013-05-27 11:52:00,75.0,6.8,29.68,West,271,2.9,2.9,7,0.00,,,0.00,meteobridge,2013-05-27 17:52:00,
2013-05-27 11:57:00,75.7,10.2,29.68,West,267,0.9,2.9,8,0.00,,,0.00,meteobridge,2013-05-27 17:57:00,
2013-05-27 12:03:00,75.6,3.7,29.68,South,190,0.9,8.1,6,0.00,,,0.00,meteobridge,2013-05-27 18:03:00,
2013-05-27 12:08:00,75.4,7.0,29.68,SSW,208,0.9,2.0,7,0.00,,,0.00,meteobridge,2013-05-27 18:08:00,
2013-05-27 12:13:00,75.4,10.0,29.68,West,278,4.0,6.0,8,0.00,,,0.00,meteobridge,2013-05-27 18:13:00,
2013-05-27 12:18:00,75.7,7.3,29.68,SSE,155,2.9,4.0,7,0.00,,,0.00,meteobridge,2013-05-27 18:18:00,
2013-05-27 12:23:00,75.0,3.4,29.68,SE,139,0.9,2.0,6,0.00,,,0.00,meteobridge,2013-05-27 18:23:00,
2013-05-27 12:28:00,75.2,9.9,29.67,SW,229,2.9,4.9,8,0.00,,,0.00,meteobridge,2013-05-27 18:28:00,
2013-05-27 12:33:00,75.2,6.8,29.68,South,190,4.0,6.9,7,0.00,,,0.00,meteobridge,2013-05-27 18:33:00,
2013-05-27 12:38:00,74.8,6.6,29.68,SSE,166,2.9,6.0,7,0.00,,,0.00,meteobridge,2013-05-27 18:38:00,
2013-05-27 12:43:00,74.8,9.5,29.67,East,98,0.9,4.0,8,0.00,,,0.00,meteobridge,2013-05-27 18:43:00,
2013-05-27 12:48:00,75.6,7.2,29.67,WNW,291,0.0,0.9,7,0.00,,,0.00,meteobridge,2013-05-27 18:48:00,
2013-05-27 12:53:00,76.5,7.9,29.67,SSW,211,0.0,2.9,7,0.00,,,0.00,meteobridge,2013-05-27 18:53:00,
2013-05-27 12:58:00,76.5,10.8,29.67,SSE,165,0.9,4.0,8,0.00,,,0.00,meteobridge,2013-05-27 18:58:00,
2013-05-27 13:03:00,76.5,7.9,29.66,ESE,122,4.0,4.9,7,0.00,,,0.00,meteobridge,2013-05-27 19:03:00,
2013-05-27 13:08:00,77.2,8.2,29.66,NW,312,0.9,6.0,7,0.00,,,0.00,meteobridge,2013-05-27 19:08:00,
2013-05-27 13:13:00,76.5,10.8,29.66,SSW,200,0.9,2.9,8,0.00,,,0.00,meteobridge,2013-05-27 19:13:00,
2013-05-27 13:18:00,76.6,7.9,29.66,SSW,197,2.0,2.0,7,0.00,,,0.00,meteobridge,2013-05-27 19:18:00,
2013-05-27 13:23:00,76.8,4.6,29.66,NW,318,0.0,2.0,6,0.00,,,0.00,meteobridge,2013-05-27 19:23:00,
2013-05-27 13:28:00,78.1,5.5,29.65,SW,228,2.9,2.9,6,0.00,,,0.00,meteobridge,2013-05-27 19:28:00,
2013-05-27 13:34:00,77.7,5.4,29.65,South,187,0.9,6.0,6,0.00,,,0.00,meteobridge,2013-05-27 19:34:00,
2013-05-27 13:39:00,77.0,4.8,29.65,WNW,295,0.0,4.9,6,0.00,,,0.00,meteobridge,2013-05-27 19:39:00,
2013-05-27 13:44:00,77.4,5.0,29.65,NNW,344,0.0,0.9,6,0.00,,,0.00,meteobridge,2013-05-27 19:44:00,
2013-05-27 13:49:00,78.6,5.9,29.64,East,82,2.0,4.0,6,0.00,,,0.00,meteobridge,2013-05-27 19:49:00,
2013-05-27 13:54:00,79.9,2.8,29.64,WSW,250,0.0,2.0,5,0.00,,,0.00,meteobridge,2013-05-27 19:54:00,
2013-05-27 13:59:00,80.1,10.4,29.64,SW,221,2.0,4.0,7,0.00,,,0.00,meteobridge,2013-05-27 19:59:00,
2013-05-27 14:04:00,79.2,2.5,29.64,SE,125,2.0,2.9,5,0.00,,,0.00,meteobridge,2013-05-27 20:04:00,
2013-05-27 14:09:00,80.4,7.3,29.63,SW,217,4.0,4.9,6,0.00,,,0.00,meteobridge,2013-05-27 20:09:00,
2013-05-27 14:14:00,79.7,6.8,29.64,WNW,298,4.0,4.0,6,0.00,,,0.00,meteobridge,2013-05-27 20:14:00,
2013-05-27 14:19:00,80.1,3.0,29.63,North,11,0.0,4.0,5,0.00,,,0.00,meteobridge,2013-05-27 20:19:00,
2013-05-27 14:24:00,80.2,7.2,29.63,South,188,2.0,4.0,6,0.00,,,0.00,meteobridge,2013-05-27 20:24:00,
2013-05-27 14:29:00,80.1,7.0,29.63,WSW,237,4.0,6.9,6,0.00,,,0.00,meteobridge,2013-05-27 20:29:00,
2013-05-27 14:34:00,80.8,3.6,29.63,SW,221,0.9,4.0,5,0.00,,,0.00,meteobridge,2013-05-27 20:34:00,
2013-05-27 14:39:00,82.2,8.6,29.62,South,180,4.9,6.0,6,0.00,,,0.00,meteobridge,2013-05-27 20:39:00,
2013-05-27 14:44:00,82.6,4.8,29.62,West,281,2.9,6.9,5,0.00,,,0.00,meteobridge,2013-05-27 20:44:00,
2013-05-27 14:49:00,82.0,4.5,29.62,West,279,0.0,6.0,5,0.00,,,0.00,meteobridge,2013-05-27 20:49:00,
2013-05-27 14:55:00,81.9,4.3,29.61,WSW,250,0.0,0.9,5,0.00,,,0.00,meteobridge,2013-05-27 20:55:00,
2013-05-27 14:59:00,82.2,4.6,29.61,NNW,328,2.9,6.9,5,0.00,,,0.00,meteobridge,2013-05-27 20:59:00,
2013-05-27 15:05:00,82.2,4.6,29.60,NW,319,0.9,4.0,5,0.00,,,0.00,meteobridge,2013-05-27 21:05:00,
2013-05-27 15:10:00,83.7,5.5,29.60,WSW,238,2.0,4.9,5,0.00,,,0.00,meteobridge,2013-05-27 21:10:00,
2013-05-27 15:15:00,84.6,1.4,29.60,SW,215,2.0,4.9,4,0.00,,,0.00,meteobridge,2013-05-27 21:15:00,
2013-05-27 15:20:00,84.2,-4.9,29.60,SSW,210,2.9,4.0,3,0.00,,,0.00,meteobridge,2013-05-27 21:20:00,
2013-05-27 15:25:00,84.6,1.4,29.60,South,180,6.0,8.9,4,0.00,,,0.00,meteobridge,2013-05-27 21:25:00,
2013-05-27 15:30:00,84.4,-4.9,29.59,WSW,240,2.9,8.1,3,0.00,,,0.00,meteobridge,2013-05-27 21:30:00,
2013-05-27 15:35:00,85.3,-4.2,29.59,WSW,245,8.9,13.0,3,0.00,,,0.00,meteobridge,2013-05-27 21:35:00,
2013-05-27 15:40:00,85.6,-4.0,29.59,SW,234,0.9,8.1,3,0.00,,,0.00,meteobridge,2013-05-27 21:40:00,
2013-05-27 15:45:00,85.3,-4.2,29.59,NW,307,2.0,8.9,3,0.00,,,0.00,meteobridge,2013-05-27 21:45:00,
2013-05-27 15:50:00,85.1,-4.4,29.59,SW,233,4.9,8.1,3,0.00,,,0.00,meteobridge,2013-05-27 21:50:00,
2013-05-27 15:55:00,84.9,-4.5,29.59,SW,215,8.9,8.9,3,0.00,,,0.00,meteobridge,2013-05-27 21:55:00,
2013-05-27 16:00:00,85.6,7.0,29.58,SW,235,6.0,6.9,5,0.00,,,0.00,meteobridge,2013-05-27 22:00:00,
2013-05-27 16:05:00,84.9,1.6,29.58,West,279,4.0,12.1,4,0.00,,,0.00,meteobridge,2013-05-27 22:05:00,
2013-05-27 16:10:00,85.6,2.1,29.58,West,260,2.9,8.1,4,0.00,,,0.00,meteobridge,2013-05-27 22:10:00,
2013-05-27 16:15:00,86.0,2.3,29.58,SSW,202,8.9,10.1,4,0.00,,,0.00,meteobridge,2013-05-27 22:15:00,
2013-05-27 16:20:00,84.6,1.4,29.57,SSE,151,6.0,10.1,4,0.00,,,0.00,meteobridge,2013-05-27 22:20:00,
2013-05-27 16:25:00,84.4,6.1,29.58,NNE,21,4.9,8.9,5,0.00,,,0.00,meteobridge,2013-05-27 22:25:00,
2013-05-27 16:30:00,84.4,1.2,29.57,WNW,292,4.9,6.0,4,0.00,,,0.00,meteobridge,2013-05-27 22:30:00,
2013-05-27 16:35:00,84.0,5.9,29.57,West,263,2.9,8.1,5,0.00,,,0.00,meteobridge,2013-05-27 22:35:00,
2013-05-27 16:40:00,83.7,5.5,29.57,West,269,6.9,13.0,5,0.00,,,0.00,meteobridge,2013-05-27 22:40:00,
2013-05-27 16:45:00,83.8,5.7,29.57,WNW,299,2.0,6.0,5,0.00,,,0.00,meteobridge,2013-05-27 22:45:00,
2013-05-27 16:50:00,83.8,5.7,29.57,WSW,240,6.0,8.9,5,0.00,,,0.00,meteobridge,2013-05-27 22:50:00,
2013-05-27 16:55:00,83.7,5.5,29.57,NNW,329,4.0,6.0,5,0.00,,,0.00,meteobridge,2013-05-27 22:55:00,
2013-05-27 17:00:00,84.9,6.4,29.57,West,279,4.9,11.0,5,0.00,,,0.00,meteobridge,2013-05-27 23:00:00,
2013-05-27 17:05:00,85.6,7.0,29.57,NW,304,4.0,8.9,5,0.00,,,0.00,meteobridge,2013-05-27 23:05:00,
2013-05-27 17:10:00,85.3,1.9,29.57,NNW,346,4.9,4.9,4,0.00,,,0.00,meteobridge,2013-05-27 23:10:00,
2013-05-27 17:15:00,85.8,7.2,29.57,West,265,6.9,8.1,5,0.00,,,0.00,meteobridge,2013-05-27 23:15:00,
2013-05-27 17:20:00,85.6,2.1,29.57,SSE,157,2.0,6.9,4,0.00,,,0.00,meteobridge,2013-05-27 23:20:00,
2013-05-27 17:25:00,85.8,2.3,29.57,WSW,253,4.9,6.0,4,0.00,,,0.00,meteobridge,2013-05-27 23:25:00,
2013-05-27 17:30:00,85.6,2.1,29.56,SSW,209,0.9,6.0,4,0.00,,,0.00,meteobridge,2013-05-27 23:30:00,
2013-05-27 17:35:00,85.6,7.0,29.56,NW,316,4.0,8.1,5,0.00,,,0.00,meteobridge,2013-05-27 23:35:00,
2013-05-27 17:40:00,85.8,7.2,29.56,West,274,2.0,4.9,5,0.00,,,0.00,meteobridge,2013-05-27 23:40:00,
2013-05-27 17:45:00,85.8,7.2,29.56,NNW,329,4.9,8.1,5,0.00,,,0.00,meteobridge,2013-05-27 23:45:00,
2013-05-27 17:50:00,85.6,10.9,29.56,WNW,288,8.1,10.1,6,0.00,,,0.00,meteobridge,2013-05-27 23:50:00,
2013-05-27 17:55:00,84.9,10.6,29.56,NW,315,2.9,6.9,6,0.00,,,0.00,meteobridge,2013-05-27 23:55:00,
2013-05-27 18:00:00,84.9,10.6,29.55,WNW,292,6.0,6.9,6,0.00,,,0.00,meteobridge,2013-05-28 00:00:00,
2013-05-27 18:05:00,84.7,10.4,29.55,NW,311,4.0,12.1,6,0.00,,,0.00,meteobridge,2013-05-28 00:05:00,
2013-05-27 18:10:00,84.4,13.6,29.55,West,263,2.0,8.9,7,0.00,,,0.00,meteobridge,2013-05-28 00:10:00,
2013-05-27 18:15:00,84.2,13.5,29.55,NW,309,0.9,4.9,7,0.00,,,0.00,meteobridge,2013-05-28 00:15:00,
2013-05-27 18:20:00,84.4,13.6,29.55,West,261,2.0,8.1,7,0.00,,,0.00,meteobridge,2013-05-28 00:20:00,
2013-05-27 18:25:00,84.0,13.3,29.55,NW,323,2.9,4.9,7,0.00,,,0.00,meteobridge,2013-05-28 00:25:00,
2013-05-27 18:30:00,84.0,16.3,29.55,NW,318,0.9,4.9,8,0.00,,,0.00,meteobridge,2013-05-28 00:30:00,
2013-05-27 18:35:00,83.7,16.2,29.55,WNW,282,4.9,10.1,8,0.00,,,0.00,meteobridge,2013-05-28 00:35:00,
2013-05-27 18:40:00,83.1,18.5,29.55,SSW,213,2.0,6.9,9,0.00,,,0.00,meteobridge,2013-05-28 00:40:00,
2013-05-27 18:45:00,82.8,18.1,29.55,NW,313,4.0,11.0,9,0.00,,,0.00,meteobridge,2013-05-28 00:45:00,
2013-05-27 18:51:00,82.4,18.0,29.55,NW,321,6.9,8.1,9,0.00,,,0.00,meteobridge,2013-05-28 00:51:00,
2013-05-27 18:56:00,81.9,17.4,29.54,ENE,59,2.0,8.9,9,0.00,,,0.00,meteobridge,2013-05-28 00:56:00,
2013-05-27 19:01:00,81.7,19.8,29.55,WSW,237,4.9,8.9,10,0.00,,,0.00,meteobridge,2013-05-28 01:01:00,
2013-05-27 19:06:00,81.0,19.2,29.55,NW,323,0.9,6.9,10,0.00,,,0.00,meteobridge,2013-05-28 01:06:00,
2013-05-27 19:11:00,80.4,21.0,29.55,WNW,286,2.0,8.1,11,0.00,,,0.00,meteobridge,2013-05-28 01:11:00,
2013-05-27 19:16:00,80.1,18.5,29.55,WNW,295,4.0,8.9,10,0.00,,,0.00,meteobridge,2013-05-28 01:16:00,
2013-05-27 19:21:00,80.1,20.8,29.55,WNW,286,0.9,6.0,11,0.00,,,0.00,meteobridge,2013-05-28 01:21:00,
2013-05-27 19:26:00,79.5,18.1,29.54,WSW,239,2.9,6.9,10,0.00,,,0.00,meteobridge,2013-05-28 01:26:00,
2013-05-27 19:31:00,79.2,18.0,29.55,NNW,333,2.9,8.1,10,0.00,,,0.00,meteobridge,2013-05-28 01:31:00,
2013-05-27 19:36:00,78.8,17.6,29.55,WNW,295,2.0,8.1,10,0.00,,,0.00,meteobridge,2013-05-28 01:36:00,
2013-05-27 19:41:00,78.4,17.4,29.55,WNW,290,0.9,8.1,10,0.00,,,0.00,meteobridge,2013-05-28 01:41:00,
2013-05-27 19:46:00,78.3,19.4,29.55,North,11,6.0,6.0,11,0.00,,,0.00,meteobridge,2013-05-28 01:46:00,
2013-05-27 19:51:00,78.1,17.1,29.55,West,275,2.9,4.9,10,0.00,,,0.00,meteobridge,2013-05-28 01:51:00,
2013-05-27 19:56:00,77.7,19.0,29.55,West,263,4.0,6.0,11,0.00,,,0.00,meteobridge,2013-05-28 01:56:00,
2013-05-27 20:01:00,77.5,16.7,29.55,SW,215,2.9,8.1,10,0.00,,,0.00,meteobridge,2013-05-28 02:01:00,
2013-05-27 20:06:00,77.4,18.7,29.55,SSW,206,0.0,4.9,11,0.00,,,0.00,meteobridge,2013-05-28 02:06:00,
2013-05-27 20:11:00,77.0,18.5,29.55,WNW,298,2.0,2.0,11,0.00,,,0.00,meteobridge,2013-05-28 02:11:00,
2013-05-27 20:16:00,76.8,18.3,29.54,SW,226,0.0,6.0,11,0.00,,,0.00,meteobridge,2013-05-28 02:16:00,
2013-05-27 20:21:00,76.5,18.0,29.54,SSW,193,0.9,4.9,11,0.00,,,0.00,meteobridge,2013-05-28 02:21:00,
2013-05-27 20:26:00,76.5,15.8,29.54,West,279,0.0,2.9,10,0.00,,,0.00,meteobridge,2013-05-28 02:26:00,
2013-05-27 20:31:00,76.5,18.0,29.54,WNW,303,0.9,2.0,11,0.00,,,0.00,meteobridge,2013-05-28 02:31:00,
2013-05-27 20:36:00,76.5,15.8,29.54,WNW,303,0.0,2.9,10,0.00,,,0.00,meteobridge,2013-05-28 02:36:00,
2013-05-27 20:41:00,76.3,15.6,29.54,West,260,0.0,2.0,10,0.00,,,0.00,meteobridge,2013-05-28 02:41:00,
2013-05-27 20:46:00,75.9,17.6,29.54,West,277,2.0,2.9,11,0.00,,,0.00,meteobridge,2013-05-28 02:46:00,
2013-05-27 20:51:00,76.3,15.6,29.54,West,267,0.9,2.9,10,0.00,,,0.00,meteobridge,2013-05-28 02:51:00,
2013-05-27 20:56:00,76.3,15.6,29.54,WNW,283,0.0,0.9,10,0.00,,,0.00,meteobridge,2013-05-28 02:56:00,
2013-05-27 21:01:00,76.1,15.6,29.54,NNW,331,0.0,0.9,10,0.00,,,0.00,meteobridge,2013-05-28 03:01:00,
2013-05-27 21:06:00,75.7,17.4,29.54,NNW,336,0.0,2.0,11,0.00,,,0.00,meteobridge,2013-05-28 03:06:00,
2013-05-27 21:11:00,75.4,19.2,29.54,NNW,336,0.0,0.9,12,0.00,,,0.00,meteobridge,2013-05-28 03:11:00,
2013-05-27 21:16:00,75.2,19.0,29.54,NNW,336,0.0,0.9,12,0.00,,,0.00,meteobridge,2013-05-28 03:16:00,
2013-05-27 21:21:00,75.0,19.0,29.54,NNW,336,0.0,0.9,12,0.00,,,0.00,meteobridge,2013-05-28 03:21:00,
2013-05-27 21:26:00,75.2,17.1,29.54,NW,309,0.9,2.0,11,0.00,,,0.00,meteobridge,2013-05-28 03:26:00,
2013-05-27 21:31:00,75.0,16.9,29.55,WNW,283,0.9,0.9,11,0.00,,,0.00,meteobridge,2013-05-28 03:31:00,
2013-05-27 21:36:00,75.0,19.0,29.55,West,279,0.0,2.9,12,0.00,,,0.00,meteobridge,2013-05-28 03:36:00,
2013-05-27 21:42:00,75.0,16.9,29.55,WNW,294,0.9,2.0,11,0.00,,,0.00,meteobridge,2013-05-28 03:42:00,
2013-05-27 21:47:00,74.8,16.9,29.55,NW,319,0.0,0.0,11,0.00,,,0.00,meteobridge,2013-05-28 03:47:00,
2013-05-27 21:52:00,74.5,18.5,29.55,NNW,346,2.0,2.0,12,0.00,,,0.00,meteobridge,2013-05-28 03:52:00,
2013-05-27 21:57:00,74.5,18.5,29.55,NNW,348,0.0,0.9,12,0.00,,,0.00,meteobridge,2013-05-28 03:57:00,
2013-05-27 22:01:00,73.8,19.8,29.55,NNW,348,0.0,0.9,13,0.00,,,0.00,meteobridge,2013-05-28 04:01:00,
2013-05-27 22:02:00,73.2,21.2,29.55,NNW,348,0.0,0.0,14,0.00,,,0.00,meteobridge,2013-05-28 04:02:00,
2013-05-27 22:03:00,73.2,21.2,29.55,NNE,30,0.0,0.9,14,0.00,,,0.00,meteobridge,2013-05-28 04:03:00,
2013-05-27 22:08:00,72.3,20.5,29.56,NE,53,0.9,0.9,14,0.00,,,0.00,meteobridge,2013-05-28 04:08:00,
2013-05-27 22:13:00,72.1,20.3,29.56,ENE,60,0.0,0.9,14,0.00,,,0.00,meteobridge,2013-05-28 04:13:00,
2013-05-27 22:19:00,72.1,20.3,29.56,ENE,61,0.0,0.9,14,0.00,,,0.00,meteobridge,2013-05-28 04:19:00,
2013-05-27 22:24:00,72.0,20.1,29.56,ENE,61,0.9,0.9,14,0.00,,,0.00,meteobridge,2013-05-28 04:24:00,
2013-05-27 22:29:00,71.8,21.6,29.56,ENE,61,0.0,0.0,15,0.00,,,0.00,meteobridge,2013-05-28 04:29:00,
2013-05-27 22:34:00,71.4,21.4,29.56,ENE,61,0.0,0.0,15,0.00,,,0.00,meteobridge,2013-05-28 04:34:00,
2013-05-27 22:39:00,71.4,19.8,29.56,ENE,61,0.0,0.0,14,0.00,,,0.00,meteobridge,2013-05-28 04:39:00,
2013-05-27 22:45:00,71.2,21.2,29.56,ENE,62,0.0,0.9,15,0.00,,,0.00,meteobridge,2013-05-28 04:45:00,
2013-05-27 22:50:00,70.7,22.3,29.57,NE,47,0.0,0.9,16,0.00,,,0.00,meteobridge,2013-05-28 04:50:00,
2013-05-27 22:55:00,70.3,20.5,29.57,NE,47,0.0,0.0,15,0.00,,,0.00,meteobridge,2013-05-28 04:55:00,
2013-05-27 23:00:00,70.5,20.7,29.57,ENE,71,0.0,0.9,15,0.00,,,0.00,meteobridge,2013-05-28 05:00:00,
2013-05-27 23:05:00,70.9,19.2,29.57,NW,325,0.0,0.9,14,0.00,,,0.00,meteobridge,2013-05-28 05:05:00,
2013-05-27 23:10:00,70.9,17.6,29.58,North,11,0.9,2.9,13,0.00,,,0.00,meteobridge,2013-05-28 05:10:00,
2013-05-27 23:15:00,71.4,16.2,29.58,NNE,14,0.9,0.9,12,0.00,,,0.00,meteobridge,2013-05-28 05:15:00,
2013-05-27 23:20:00,72.1,14.7,29.58,NNW,331,0.9,0.9,11,0.00,,,0.00,meteobridge,2013-05-28 05:20:00,
2013-05-27 23:26:00,71.6,19.9,29.58,WSW,244,0.0,0.0,14,0.00,,,0.00,meteobridge,2013-05-28 05:26:00,
2013-05-27 23:31:00,70.3,18.9,29.58,SSW,200,0.9,2.0,14,0.00,,,0.00,meteobridge,2013-05-28 05:31:00,
2013-05-27 23:36:00,70.5,19.0,29.59,WSW,243,0.0,0.0,14,0.00,,,0.00,meteobridge,2013-05-28 05:36:00,
2013-05-27 23:41:00,70.5,19.0,29.59,SSW,207,0.0,2.0,14,0.00,,,0.00,meteobridge,2013-05-28 05:41:00,
2013-05-27 23:46:00,70.2,18.7,29.59,NNW,346,0.0,0.9,14,0.00,,,0.00,meteobridge,2013-05-28 05:46:00,
2013-05-27 23:51:00,69.6,18.3,29.59,NNW,346,0.0,0.0,14,0.00,,,0.00,meteobridge,2013-05-28 05:51:00,
2013-05-27 23:56:00,69.8,18.5,29.59,NW,318,0.0,2.0,14,0.00,,,0.00,meteobridge,2013-05-28 05:56:00,